Location: Archemont
(49.1579°N, 1.7598°E)
Time: 02:37:59
(UTC+00:00)

Vanguard 3 - Pass Details

Date: 26 April 2024
Orbit: 509 x 3233 km, 33.3° (Epoch: 24 May)

Event Time Altitude Azimuth Distance (km) Brightness Sun altitude
Exits shadow 00:00:47 18° 139° (SE) 4,979 10.7 -27.2°
Drops below altitude 10° 00:08:27 10° 109° (ESE) 5,151 11.1 -27.1°
Sets 00:13:34 0° 93° (E) 5,707 11.5 -27.0°
